This is the latest recevied weather packets stored in our database for station/object K9VSK-9. If no packets are shown the sender has not sent any weather packets the latest 10 day(s).
| Time | Temp. | Humidity | Pressure | Rain* | Wind** | Luminosity | Snow |
|---|---|---|---|---|---|---|---|
| 1778164603 | 12.78° C | 55% | 1016.5 hPa | 0 mm | - | - | - |
| 1778164303 | 12.22° C | 54% | 1016.7 hPa | 0 mm | - | - | - |
| 1778164003 | 12.22° C | 58% | 1016.7 hPa | 0 mm | - | - | - |
| 1778163702 | 11.67° C | 57% | 1016.7 hPa | 0 mm | - | - | - |
| 1778163402 | 11.67° C | 58% | 1016.9 hPa | 0 mm | - | - | - |
| 1778163102 | 11.67° C | 56% | 1016.9 hPa | 0 mm | - | - | - |
| 1778162801 | 11.67° C | 56% | 1016.9 hPa | 0 mm | - | - | - |
| 1778162501 | 11.11° C | 59% | 1017 hPa | 0 mm | - | - | - |
| 1778162201 | 11.11° C | 61% | 1017.1 hPa | 0 mm | - | - | - |
| 1778161900 | 10.56° C | 63% | 1017.1 hPa | 0 mm | - | - | - |
| 1778161600 | 10.56° C | 64% | 1017.2 hPa | 0 mm | - | - | - |
| 1778161300 | 10° C | 68% | 1017.2 hPa | 0 mm | - | - | - |
| 1778161000 | 10° C | 67% | 1017.2 hPa | 0 mm | - | - | - |
| 1778160699 | 9.44° C | 68% | 1017.3 hPa | 0 mm | - | - | - |
| 1778160399 | 9.44° C | 69% | 1017.3 hPa | 0 mm | - | - | - |
| 1778160099 | 9.44° C | 68% | 1017.3 hPa | 0 mm | - | - | - |
| 1778159798 | 8.89° C | 71% | 1017.4 hPa | 0 mm | - | - | - |
| 1778159498 | 8.89° C | 69% | 1017.4 hPa | 0 mm | - | - | - |
| 1778159198 | 8.33° C | 71% | 1017.5 hPa | 0 mm | - | - | - |
| 1778158898 | 8.33° C | 73% | 1017.4 hPa | 0 mm | - | - | - |
| 1778158597 | 7.78° C | 76% | 1017.5 hPa | 0 mm | - | - | - |
| 1778158297 | 7.22° C | 76% | 1017.3 hPa | 0 mm | - | - | - |
| 1778157997 | 7.22° C | 79% | 1017.3 hPa | 0 mm | - | - | - |
| 1778157696 | 6.67° C | 80% | 1017.3 hPa | 0 mm | - | - | - |
| 1778157396 | 6.11° C | 82% | 1017.3 hPa | 0 mm | - | - | - |
* Rain latest hour (hover to see other rain measurements)
** Current wind speed in m/s (hover to see current wind gust speed)